{"data":{"norad_id":69042,"intl_designator":"2026-101T","name":"STARLINK-37644","alt_names":[],"object_type":"PAYLOAD","status":"ACTIVE","operator":null,"country":"US","launch_date":"2026-05-06","launch_site_code":"AFWTR","launch_vehicle":null,"mission":null,"orbit_class":"UNKNOWN","rcs_meters":null,"size_class":null,"mass_kg":null,"dimensions":null,"purposes":["comms"],"wikipedia_slug":null,"has_3d_model":false,"image_url":null,"decayed_at":null,"tle_current":{"epoch":"2026-09-19T08:30:20.395872Z","epoch_age_seconds":122257,"freshness":"FRESH","line1":"1 69042U 26101T   26262.35440273  .00010150  00000+0  31639-3 0  9998","line2":"2 69042  97.2853 115.8600 0002136  88.2608 271.8879 15.33434889 21005","mean_motion":15.33434889,"eccentricity":0.0002136,"inclination_deg":97.2853,"raan_deg":115.86,"arg_perigee_deg":88.2608,"mean_anomaly_deg":271.8879,"bstar":0.00031639,"rev_number":2100,"period_min":93.906823845587,"perigee_km":464.11144135466,"apogee_km":467.03507437682,"semimajor_km":6843.7102578657,"source":"CELESTRAK","updated_at":"2026-09-20T09:00:44.061372Z"}}}